Location: New Mesquite
(33.1168°N, 96.4336°W)
Time: 22:58:51
(UTC+00:00)

Meteor 1-27 Rocket - Pass Details

Date: 10 July 2022
Orbit: 829 x 911 km, 81.3° (Epoch: 16 August)

Event Time Altitude Azimuth Distance (km) Brightness Sun altitude
Rises 06:52:18 0° 14° (NNE) 3,396 7.9 -34.4°
Reaches altitude 10° 06:55:59 10° 38° (NE) 2,446 6.7 -34.3°
Maximum altitude 06:58:52 14° 70° (ENE) 2,145 6.0 -34.3°
Enters shadow 06:59:39 14° 80° (E) 2,166 6.0 -34.2°
